ALSAT 1N

Satellite information

Favourite Embed

Satellite Type and Status

PAYLOADIN ORBIT

Key statistics

Satellite ALSAT 1N at a glance.

Uptime

3324

Days in orbit

Revolutions

≈ 14.7

Per day

Orbit

SSO

Sun Synchronous Orbit

Inclination

97.8

Latest

Satellite identification and parameters

Extended collection of information and parameters for ALSAT 1N.

Object identification

Identified? True

Debris? False

Object name: ALSAT 1N

International designator: 2016-059G

Object number (NORAD): 41789

Object ID (CCSDS): 41789

Country: ALGERIA (ALG)

Current information (Y/N): Y

RCS size: SMALL

Orbital parameters

Period: 98.044 minutes

Inclination: 97.8038 deg

SMA: 7043.268 km

Apoapsis: 683.284 km

Periapsis: 646.982 km

RAAN: 314.2066 deg

Eccentricy: 0.00257706

Argument of periapsis: 192.505 deg

Mean anomaly: 167.552 deg

Mean motion: 14.68728274 rev/day

Mean motion (dot): 0.00001323 rev/day2

B* drag term: 0.00023397739 1/REarth

Two-line elements (TLE)

Creation date: Nov. 1, 2025, 7:40 p.m.

Reference frame: TEME

Reference center: EARTH

Epoch: Nov. 1, 2025, 2:55 p.m. UTC

TLE line 0: 0 ALSAT 1N

TLE line 1: 1 41789U 16059G 25305.62155933 .00001323 00000-0 23398-3 0 9996

TLE line 2: 2 41789 97.8038 314.2066 0025771 192.5050 167.5520 14.68728274486599

Live tracking on map

Real-time ground track for satellite ALSAT 1N.

In-orbit conjunctions

There are no conjunctions computed for ALSAT 1N, at the moment. Check back to stay up to date, as we update our databases every day.

Go to all conjunctions

Associated space launch

ScatSat-1 is a microsatellite of 371 kg and a mission life of 5 years. It is tasked to provide weather forecasting, cyclone prediction, and tracking services to India. This launch will also carry 7 other satellites, the 117kg Alsat-2B, the 103kg Alsat-1B & the 7kg Alsat-1N earth observation satellites for Algerian Space Agency, the 44kg Pathfinder-1 earth imager for Blacksky, the 8kg CanX-7 deorbiter for UTIAS Space Flight Laboratory, the 10kg Pratham Ionospheric Tomographer for IIT Bombay and the 5.25kg PiSat earth imager for PES University.

ALSAT 1N was lifted into orbit during the mission ‘PSLV | SCATSat-1’, on board a PSLV space rocket.

The launch took place on Sept. 26, 2016, 3:42 a.m. from Satish Dhawan Space Centre First Launch Pad.

For more information about the launch, click the button.

Launch to space PSLV | SCATSat-1
PSLV | SCATSat-1

Agency: N/A

Status: Launch Successful

Launch date: Sept. 26, 2016, 3:42 a.m. UTC

Rocket: PSLV

Launch pad: Satish Dhawan Space Centre First Launch Pad

Location: Satish Dhawan Space Centre, India

...

Latest news about this satellite

There are no fresh news available about this satellite. Check back as we update our databases every day.


Newsletter sign-up

Weekly statistics, charts and insights to help you stay on top of the space industry.